FW3958 Weather Reports


time (UTC)temp
C
wind
direction
speed
KPH
gust
KPH
rain 1hr
cm
rain 24hr
cm
rain mn
cm
humidity
%
barometer
mb
20260503051513 10 186 0.0 0.0 0.00 0.00 0.00 100 1016.1
20260503050012 10 186 0.0 0.0 0.00 0.00 0.00 100 1016.1
20260503044522 10 186 0.0 4.8 0.00 0.00 0.00 100 1016.0
20260503043012 11 180 1.6 4.8 0.00 0.00 0.00 99 1015.8
20260503041512 11 180 0.0 3.2 0.00 0.00 0.00 98 1015.6
20260503040010 11 178 1.6 6.4 0.00 0.00 0.00 98 1015.5
20260503034510 12 181 1.6 4.8 0.00 0.00 0.00 97 1015.1
20260503033010 12 182 4.8 11.3 0.00 0.00 0.00 96 1015.0
20260503031510 12 179 0.0 4.8 0.00 0.00 0.00 94 1014.8
20260503030108 13 184 4.8 9.7 0.00 0.00 0.00 93 1014.9
20260503024509 14 183 4.8 11.3 0.00 0.00 0.00 91 1014.9
20260503023024 15 169 4.8 11.3 0.00 0.00 0.00 90 1014.7
20260503021507 15 211 3.2 9.7 0.00 0.00 0.00 89 1014.7
20260503020006 15 205 3.2 8.0 0.00 0.00 0.00 88 1014.8
20260503014507 16 176 4.8 12.9 0.00 0.00 0.00 87 1014.9
20260503013114 16 218 4.8 12.9 0.00 0.00 0.00 88 1014.9
20260503011506 16 202 6.4 11.3 0.00 0.00 0.00 86 1015.0
20260503010002 16 218 6.4 12.9 0.00 0.00 0.00 86 1015.0
20260503004600 17 230 8.0 14.5 0.00 0.00 0.00 85 1015.2
20260503003106 17 209 8.0 14.5 0.00 0.00 0.00 83 1015.2
20260503001600 17 284 3.2 8.0 0.00 0.00 0.00 84 1015.2
20260503000109 17 299 4.8 9.7 0.00 0.00 0.00 84 1015.2
20260502234555 17 326 3.2 11.3 0.00 0.00 0.00 82 1015.3
20260502233059 18 257 4.8 11.3 0.00 0.00 0.00 82 1015.4
20260502231552 17 326 4.8 12.9 0.00 0.00 0.00 84 1015.5
20260502230051 18 319 6.4 12.9 0.00 0.00 0.00 80 1015.5
20260502224547 18 9 8.0 12.9 0.00 0.00 0.00 84 1015.6
20260502223044 17 9 3.2 11.3 0.00 0.00 0.00 85 1015.6
20260502221540 17 22 4.8 12.9 0.00 0.00 0.00 84 1016.1
20260502220039 16 29 12.9 19.3 0.00 0.00 0.00 86 1016.2
20260502214537 16 21 12.9 19.3 0.00 0.00 0.00 86 1016.4
20260502213036 16 6 9.7 19.3 0.00 0.00 0.00 86 1016.4
20260502211541 16 16 11.3 20.9 0.00 0.00 0.00 84 1016.5
20260502210033 16 335 9.7 19.3 0.00 0.00 0.00 87 1016.6
20260502204532 16 315 11.3 16.1 0.00 0.00 0.00 84 1016.8
20260502203031 17 355 6.4 14.5 0.00 0.00 0.00 84 1016.7
20260502201529 16 353 9.7 16.1 0.00 0.00 0.00 84 1016.8
20260502200032 16 335 6.4 16.1 0.00 0.00 0.00 84 1017.0
20260502194521 16 352 3.2 8.0 0.00 0.00 0.00 85 1017.4
20260502193019 15 21 3.2 11.3 0.00 0.00 0.00 87 1017.6
20260502191520 15 343 3.2 9.7 0.00 0.00 0.00 88 1017.8
20260502190012 14 300 4.8 9.7 0.00 0.00 0.00 87 1018.0
20260502184513 13 291 1.6 11.3 0.00 0.00 0.00 90 1018.2
20260502183006 13 288 3.2 9.7 0.00 0.00 0.00 90 1018.6
20260502181504 13 297 1.6 8.0 0.00 0.00 0.00 92 1018.6
20260502163059 11 16 0.0 0.0 0.00 0.00 0.00 96 1018.9
20260502161554 11 3 0.0 1.6 0.00 0.00 0.00 97 1018.7
20260502151548 10 289 0.0 0.0 0.00 0.00 0.00 99 1019.1
20260502123043 10 295 0.0 0.0 0.00 0.00 0.00 99 1019.2
20260502121528 10 295 0.0 0.0 0.00 0.00 0.00 99 1019.2
20260502114526 10 295 0.0 0.0 0.00 0.00 0.00 99 1019.1
20260502113025 10 295 0.0 0.0 0.00 0.00 0.00 99 1019.4
20260502111526 10 284 0.0 0.0 0.00 0.00 0.00 99 1019.6
20260502110026 10 284 0.0 0.0 0.00 0.00 0.00 99 1019.6
20260502104619 10 284 0.0 0.0 0.00 0.00 0.00 99 1019.8
20260502103019 10 284 0.0 0.0 0.00 0.00 0.00 99 1020.1
20260502101518 10 284 0.0 0.0 0.00 0.00 0.00 99 1020.1
20260502091513 10 288 0.0 0.0 0.00 0.00 0.00 99 1020.5
20260502071504 10 287 0.0 0.0 0.00 0.00 0.00 98 1021.1
20260502070003 10 288 0.0 0.0 0.00 0.00 0.00 98 1020.9
20260502064507 10 288 0.0 0.0 0.00 0.00 0.00 97 1021.0
20260502063007 10 288 0.0 0.0 0.00 0.00 0.00 98 1021.0
20260502061502 10 288 0.0 0.0 0.00 0.00 0.00 97 1020.8
20260502060201 10 288 0.0 0.0 0.00 0.00 0.00 97 1020.7
20260502054608 10 290 0.0 1.6 0.00 0.00 0.00 97 1020.8
20260502053104 10 290 0.0 1.6 0.00 0.00 0.00 96 1020.6